,,,PA_Meas_PMT16A,,PR_Meas_QMR101_102,,RH_Meas_QMH101,,SR_Meas_QMS101,,TA_Meas_QMH101,,GenWind,,GenWind,
date,time,status,PA,status,PR,status,RH,status,SR,status,TA,status,DirAvg,status,SpdAvg,
2010-06-29, 00:00:04,VALID,1000.08,VALID,0,VALID,92.1048,VALID,0,VALID,23.7012,VALID,124,VALID,0.390234,
2010-06-29, 00:01:04,VALID,1000.09,VALID,0,VALID,92.1048,VALID,0,VALID,23.6622,VALID,124,VALID,0.407813,
2010-06-29, 00:02:04,VALID,1000.04,VALID,0,VALID,92.1353,VALID,0,VALID,23.6427,VALID,97,VALID,0.608984,
2010-06-29, 00:03:04,VALID,1000.04,VALID,0,VALID,92.1429,VALID,0,VALID,23.6036,VALID,79,VALID,0.667578,
2010-06-29, 00:04:04,VALID,1000.04,VALID,0,VALID,92.1277,VALID,0,VALID,23.5646,VALID,49,VALID,0.821875,
2010-06-29, 00:05:04,VALID,1000.05,VALID,0,VALID,92.0209,VALID,0,VALID,23.5061,VALID,32,VALID,0.815234,
2010-06-29, 00:06:04,VALID,1000.02,VALID,0,VALID,92.0743,VALID,0,VALID,23.4671,VALID,33,VALID,0.421484,
2010-06-29, 00:07:04,VALID,1000.02,VALID,0,VALID,92.1353,VALID,0,VALID,23.4085,VALID,32,VALID,0.0414063,
2010-06-29, 00:08:04,VALID,1000.01,VALID,0,VALID,92.3108,VALID,0,VALID,23.4085,VALID,33,VALID,0,
2010-06-29, 00:09:04,VALID,999.979,VALID,0,VALID,92.4023,VALID,0,VALID,23.389,VALID,33,VALID,0,
2010-06-29, 00:10:04,VALID,999.954,VALID,0,VALID,92.5015,VALID,0,VALID,23.389,VALID,33,VALID,0,
2010-06-29, 00:11:04,VALID,999.961,VALID,0,VALID,92.5473,VALID,0,VALID,23.389,VALID,33,VALID,0,
2010-06-29, 00:12:04,VALID,999.947,VALID,0,VALID,92.5854,VALID,0,VALID,23.3695,VALID,33,VALID,0,
2010-06-29, 00:13:04,VALID,999.944,VALID,0,VALID,92.4939,VALID,0,VALID,23.3305,VALID,33,VALID,0,
2010-06-29, 00:14:04,VALID,999.939,VALID,0,VALID,92.4481,VALID,0,VALID,23.311,VALID,33,VALID,0,
2010-06-29, 00:15:04,VALID,999.903,VALID,0,VALID,92.4328,VALID,0,VALID,23.2719,VALID,33,VALID,0,
2010-06-29, 00:16:04,VALID,999.936,VALID,0,VALID,92.471,VALID,0,VALID,23.2915,VALID,33,VALID,0,
2010-06-29, 00:17:04,VALID,999.9,VALID,0,VALID,92.5473,VALID,0,VALID,23.3323,VALID,33,VALID,0,
2010-06-29, 00:18:04,VALID,999.908,VALID,0,VALID,92.5778,VALID,0,VALID,23.2915,VALID,33,VALID,0,
2010-06-29, 00:19:04,VALID,999.912,VALID,0,VALID,92.6083,VALID,0,VALID,23.2897,VALID,33,VALID,0,
2010-06-29, 00:20:04,VALID,999.943,VALID,0,VALID,92.6312,VALID,0,VALID,23.3092,VALID,33,VALID,0,
2010-06-29, 00:21:05,VALID,999.939,VALID,0,VALID,92.6007,VALID,0,VALID,23.3074,VALID,39,VALID,0,
2010-06-29, 00:22:05,VALID,999.95,VALID,0,VALID,92.41,VALID,0,VALID,23.3092,VALID,42,VALID,0,
2010-06-29, 00:23:05,VALID,999.956,VALID,0,VALID,92.1734,VALID,0,VALID,23.2897,VALID,42,VALID,0,
2010-06-29, 00:24:05,VALID,999.95,VALID,0,VALID,92.2116,VALID,0,VALID,23.2897,VALID,42,VALID,0,
2010-06-29, 00:25:05,VALID,999.945,VALID,0,VALID,92.3337,VALID,0,VALID,23.3092,VALID,42,VALID,0,
2010-06-29, 00:26:05,VALID,999.955,VALID,0,VALID,92.3413,VALID,0.112286,VALID,23.3092,VALID,42,VALID,0,
2010-06-29, 00:27:05,VALID,999.942,VALID,0,VALID,92.2497,VALID,0,VALID,23.3092,VALID,42,VALID,0,
2010-06-29, 00:28:05,VALID,999.945,VALID,0,VALID,92.1048,VALID,0,VALID,23.2507,VALID,42,VALID,0,
2010-06-29, 00:29:05,VALID,999.978,VALID,0,VALID,92.1506,VALID,0,VALID,23.2312,VALID,42,VALID,0,
2010-06-29, 00:30:05,VALID,999.93,VALID,0,VALID,92.2955,VALID,0,VALID,23.2117,VALID,42,VALID,0,
2010-06-29, 00:31:05,VALID,999.912,VALID,0,VALID,92.41,VALID,0,VALID,23.2117,VALID,42,VALID,0,
2010-06-29, 00:32:05,VALID,999.88,VALID,0,VALID,92.4023,VALID,0,VALID,23.1921,VALID,42,VALID,0,
2010-06-29, 00:33:05,VALID,999.894,VALID,0,VALID,92.5015,VALID,0,VALID,23.1921,VALID,33,VALID,0.676562,
2010-06-29, 00:34:05,VALID,999.866,VALID,0,VALID,92.6083,VALID,0,VALID,23.1939,VALID,29,VALID,0.438672,
2010-06-29, 00:35:05,VALID,999.833,VALID,0,VALID,92.6465,VALID,0,VALID,23.2134,VALID,29,VALID,0.146875,
2010-06-29, 00:36:05,VALID,999.843,VALID,0,VALID,92.4634,VALID,0,VALID,23.2134,VALID,29,VALID,0.467187,
2010-06-29, 00:37:05,VALID,999.838,VALID,0,VALID,92.4863,VALID,0,VALID,23.1939,VALID,39,VALID,0.570703,
2010-06-29, 00:38:05,VALID,999.828,VALID,0,VALID,92.4481,VALID,0,VALID,23.2347,VALID,56,VALID,0.3875,
2010-06-29, 00:39:05,VALID,999.817,VALID,0,VALID,92.3871,VALID,0,VALID,23.2134,VALID,57,VALID,0.380859,
2010-06-29, 00:40:05,VALID,999.836,VALID,0,VALID,92.3337,VALID,0,VALID,23.2134,VALID,80,VALID,0.658594,
2010-06-29, 00:41:05,VALID,999.829,VALID,0,VALID,92.2803,VALID,0,VALID,23.2329,VALID,87,VALID,0.547656,
2010-06-29, 00:42:05,VALID,999.814,VALID,0,VALID,92.1353,VALID,0,VALID,23.2542,VALID,87,VALID,0.525391,
2010-06-29, 00:43:05,VALID,999.796,VALID,0,VALID,91.9674,VALID,0,VALID,23.2329,VALID,87,VALID,0.148047,
2010-06-29, 00:44:05,VALID,999.81,VALID,0,VALID,91.5707,VALID,0,VALID,23.2134,VALID,87,VALID,0,
2010-06-29, 00:45:05,VALID,999.778,VALID,0,VALID,91.3723,VALID,0,VALID,23.1744,VALID,87,VALID,0,
2010-06-29, 00:46:05,VALID,999.782,VALID,0,VALID,91.4791,VALID,0,VALID,23.1566,VALID,359,VALID,0,
2010-06-29, 00:47:05,VALID,999.726,VALID,0,VALID,91.5783,VALID,0,VALID,23.1176,VALID,348,VALID,0,
2010-06-29, 00:48:05,VALID,999.703,VALID,0,VALID,91.6775,VALID,0,VALID,23.0573,VALID,326,VALID,0.741797,
2010-06-29, 00:49:05,VALID,999.737,VALID,0,VALID,91.9217,VALID,0,VALID,23.0361,VALID,324,VALID,0.634375,
2010-06-29, 00:50:05,VALID,999.764,VALID,0,VALID,92.0971,VALID,0.112286,VALID,23.0166,VALID,324,VALID,0.574609,
2010-06-29, 00:51:05,VALID,999.786,VALID,0,VALID,92.326,VALID,0,VALID,23.0166,VALID,324,VALID,0.53125,
2010-06-29, 00:52:05,VALID,999.814,VALID,0,VALID,92.4634,VALID,0,VALID,23.0361,VALID,324,VALID,0.164063,
2010-06-29, 00:53:05,VALID,999.821,VALID,0,VALID,92.6007,VALID,0,VALID,23.0573,VALID,257,VALID,0.603906,
2010-06-29, 00:54:05,VALID,999.827,VALID,0,VALID,92.738,VALID,0,VALID,23.0751,VALID,210,VALID,0.290234,
2010-06-29, 00:55:05,VALID,999.811,VALID,0,VALID,92.7685,VALID,0.112286,VALID,23.1141,VALID,210,VALID,0.127734,
2010-06-29, 00:56:05,VALID,999.787,VALID,0,VALID,92.7991,VALID,0,VALID,23.1141,VALID,210,VALID,0,
2010-06-29, 00:57:05,VALID,999.791,VALID,0,VALID,92.7838,VALID,0,VALID,23.1354,VALID,210,VALID,0,
2010-06-29, 00:58:05,VALID,999.765,VALID,0,VALID,92.7533,VALID,0,VALID,23.1141,VALID,210,VALID,0,
2010-06-29, 00:59:05,VALID,999.783,VALID,0,VALID,92.6236,VALID,0,VALID,23.0946,VALID,210,VALID,0,
2010-06-29, 01:00:05,VALID,999.783,VALID,0,VALID,92.7075,VALID,0,VALID,23.0946,VALID,210,VALID,0,
2010-06-29, 01:01:05,VALID,999.791,VALID,0,VALID,92.7457,VALID,0,VALID,23.0946,VALID,210,VALID,0,
2010-06-29, 01:02:05,VALID,999.786,VALID,0,VALID,92.677,VALID,0,VALID,23.1141,VALID,210,VALID,0,
2010-06-29, 01:03:05,VALID,999.751,VALID,0,VALID,92.5549,VALID,0,VALID,23.0946,VALID,210,VALID,0,
2010-06-29, 01:04:05,VALID,999.769,VALID,0,VALID,92.532,VALID,0,VALID,23.0573,VALID,210,VALID,0,
2010-06-29, 01:05:05,VALID,999.764,VALID,0,VALID,92.6846,VALID,0,VALID,23.0981,VALID,210,VALID,0.491406,
2010-06-29, 01:06:05,VALID,999.782,VALID,0,VALID,92.7304,VALID,0,VALID,23.1176,VALID,210,VALID,0.549219,
2010-06-29, 01:07:05,VALID,999.746,VALID,0,VALID,92.7685,VALID,0,VALID,23.1159,VALID,210,VALID,0.53125,
2010-06-29, 01:08:05,VALID,999.732,VALID,0,VALID,92.7533,VALID,0,VALID,23.1354,VALID,210,VALID,0.414063,
2010-06-29, 01:09:05,VALID,999.743,VALID,0,VALID,92.7228,VALID,0,VALID,23.1762,VALID,210,VALID,0.191797,
2010-06-29, 01:10:05,VALID,999.716,VALID,0,VALID,92.6923,VALID,0,VALID,23.1549,VALID,210,VALID,0.429688,
2010-06-29, 01:11:05,VALID,999.68,VALID,0,VALID,92.6388,VALID,0,VALID,23.1354,VALID,210,VALID,0.458594,
2010-06-29, 01:12:05,VALID,999.686,VALID,0,VALID,92.6007,VALID,0,VALID,23.1159,VALID,210,VALID,0.390234,
2010-06-29, 01:13:05,VALID,999.657,VALID,0,VALID,92.3794,VALID,0,VALID,23.0573,VALID,210,VALID,0.171484,
2010-06-29, 01:14:05,VALID,999.632,VALID,0,VALID,92.2192,VALID,0,VALID,23.0201,VALID,210,VALID,0.314453,
2010-06-29, 01:15:05,VALID,999.636,VALID,0,VALID,92.3871,VALID,0,VALID,22.9793,VALID,210,VALID,0.285937,
2010-06-29, 01:16:05,VALID,999.602,VALID,0,VALID,92.5778,VALID,0,VALID,23.0006,VALID,210,VALID,0,
2010-06-29, 01:17:05,VALID,999.587,VALID,0,VALID,92.6999,VALID,0,VALID,22.9598,VALID,210,VALID,0,
2010-06-29, 01:18:05,VALID,999.567,VALID,0,VALID,92.7151,VALID,0,VALID,22.9208,VALID,210,VALID,0,
2010-06-29, 01:19:05,VALID,999.588,VALID,0,VALID,92.9288,VALID,0,VALID,22.9403,VALID,210,VALID,0.401953,
2010-06-29, 01:20:05,VALID,999.561,VALID,0,VALID,93.0966,VALID,0,VALID,22.9598,VALID,210,VALID,0.503516,
2010-06-29, 01:21:05,VALID,999.571,VALID,0,VALID,93.15,VALID,0,VALID,22.9793,VALID,210,VALID,0.597656,
2010-06-29, 01:22:05,VALID,999.544,VALID,0,VALID,93.1271,VALID,0,VALID,22.9793,VALID,210,VALID,0.630859,
2010-06-29, 01:23:05,VALID,999.572,VALID,0,VALID,92.9669,VALID,0,VALID,22.9598,VALID,40,VALID,0.795313,
2010-06-29, 01:24:05,VALID,999.561,VALID,0,VALID,93.0127,VALID,0,VALID,22.9793,VALID,39,VALID,1.01133,
2010-06-29, 01:25:05,VALID,999.582,VALID,0,VALID,92.9364,VALID,0,VALID,23.0183,VALID,39,VALID,1.10312,
2010-06-29, 01:26:05,VALID,999.58,VALID,0,VALID,92.7304,VALID,0,VALID,23.0573,VALID,39,VALID,1.07187,
2010-06-29, 01:27:05,VALID,999.59,VALID,0,VALID,92.2726,VALID,0,VALID,23.0573,VALID,39,VALID,0.897266,
2010-06-29, 01:28:05,VALID,999.575,VALID,0,VALID,91.7462,VALID,0,VALID,23.0183,VALID,39,VALID,0.327734,
2010-06-29, 01:29:05,VALID,999.551,VALID,0,VALID,91.5097,VALID,0,VALID,22.9598,VALID,39,VALID,0.237891,
2010-06-29, 01:30:05,VALID,999.528,VALID,0,VALID,91.6928,VALID,0,VALID,22.9598,VALID,39,VALID,0.129688,
2010-06-29, 01:31:05,VALID,999.516,VALID,0,VALID,91.8683,VALID,0,VALID,22.9403,VALID,39,VALID,0,
2010-06-29, 01:32:05,VALID,999.498,VALID,0,VALID,92.0285,VALID,0,VALID,22.9208,VALID,39,VALID,0.416016,
2010-06-29, 01:33:05,VALID,999.49,VALID,0,VALID,92.204,VALID,0,VALID,22.9208,VALID,39,VALID,0.464844,
2010-06-29, 01:34:05,VALID,999.478,VALID,0,VALID,92.2345,VALID,0,VALID,22.9208,VALID,39,VALID,0.375781,
2010-06-29, 01:35:05,VALID,999.456,VALID,0,VALID,92.1048,VALID,0,VALID,22.8818,VALID,39,VALID,0.349219,
2010-06-29, 01:36:05,VALID,999.477,VALID,0,VALID,92.0285,VALID,0,VALID,22.8232,VALID,39,VALID,0.495313,
2010-06-29, 01:37:05,VALID,999.461,VALID,0,VALID,91.9751,VALID,0,VALID,22.7647,VALID,39,VALID,0.719922,
2010-06-29, 01:38:05,VALID,999.447,VALID,0,VALID,92.0666,VALID,0,VALID,22.7257,VALID,39,VALID,0.864453,
2010-06-29, 01:39:05,VALID,999.445,VALID,0,VALID,92.41,VALID,0,VALID,22.7257,VALID,29,VALID,1.14727,
2010-06-29, 01:40:05,VALID,999.422,VALID,0,VALID,92.6083,VALID,0,VALID,22.685,VALID,27,VALID,1.27148,
2010-06-29, 01:41:05,VALID,999.388,VALID,0,VALID,92.7685,VALID,0,VALID,22.7062,VALID,20,VALID,1.15391,
2010-06-29, 01:42:05,VALID,999.405,VALID,0,VALID,92.8677,VALID,0,VALID,22.7257,VALID,20,VALID,0.826563,
2010-06-29, 01:43:05,VALID,999.395,VALID,0,VALID,92.8983,VALID,0,VALID,22.7062,VALID,20,VALID,0.668359,
2010-06-29, 01:44:05,VALID,999.372,VALID,0,VALID,92.8296,VALID,0,VALID,22.6867,VALID,15,VALID,0.79375,
2010-06-29, 01:45:05,VALID,999.375,VALID,0,VALID,92.9059,VALID,0,VALID,22.685,VALID,15,VALID,0.93125,
2010-06-29, 01:46:05,VALID,999.347,VALID,0,VALID,92.9288,VALID,0,VALID,22.6867,VALID,15,VALID,0.849219,
2010-06-29, 01:47:05,VALID,999.363,VALID,0,VALID,92.9669,VALID,0,VALID,22.6867,VALID,15,VALID,0.890234,
2010-06-29, 01:48:05,VALID,999.334,VALID,0,VALID,92.8296,VALID,0,VALID,22.6867,VALID,15,VALID,0.6875,
2010-06-29, 01:49:05,VALID,999.31,VALID,0,VALID,92.8906,VALID,0,VALID,22.6867,VALID,15,VALID,0.909766,
2010-06-29, 01:50:05,VALID,999.306,VALID,0,VALID,92.8677,VALID,0,VALID,22.646,VALID,12,VALID,0.906641,
2010-06-29, 01:51:05,VALID,999.316,VALID,0,VALID,92.9517,VALID,0,VALID,22.685,VALID,12,VALID,0.899219,
2010-06-29, 01:52:05,VALID,999.287,VALID,0,VALID,92.8525,VALID,0,VALID,22.7062,VALID,12,VALID,0.835156,
2010-06-29, 01:53:05,VALID,999.27,VALID,0,VALID,92.6388,VALID,0,VALID,22.6672,VALID,12,VALID,0.925781,
2010-06-29, 01:54:05,VALID,999.26,VALID,0,VALID,92.5931,VALID,0,VALID,22.6282,VALID,12,VALID,0.754687,
2010-06-29, 01:55:05,VALID,999.231,VALID,0,VALID,92.5931,VALID,0,VALID,22.6087,VALID,12,VALID,0.791797,
2010-06-29, 01:56:05,VALID,999.226,VALID,0,VALID,92.6617,VALID,0,VALID,22.6087,VALID,12,VALID,0.730078,
2010-06-29, 01:57:05,VALID,999.236,VALID,0,VALID,92.7838,VALID,0,VALID,22.6087,VALID,13,VALID,1.02891,
2010-06-29, 01:58:05,VALID,999.207,VALID,0,VALID,92.8525,VALID,0,VALID,22.6282,VALID,16,VALID,1.18203,
2010-06-29, 01:59:05,VALID,999.198,VALID,0,VALID,92.883,VALID,0,VALID,22.6477,VALID,30,VALID,1.3375,
2010-06-29, 02:00:05,VALID,999.227,VALID,0,VALID,92.6007,VALID,0,VALID,22.6282,VALID,31,VALID,1.52109,
2010-06-29, 02:01:05,VALID,999.226,VALID,0,VALID,92.3947,VALID,0,VALID,22.5892,VALID,42,VALID,1.55313,
2010-06-29, 02:02:05,VALID,999.235,VALID,0,VALID,92.2192,VALID,0,VALID,22.5501,VALID,45,VALID,1.50234,
2010-06-29, 02:03:05,VALID,999.202,VALID,0,VALID,92.2116,VALID,0,VALID,22.5714,VALID,48,VALID,1.41523,
2010-06-29, 02:04:05,VALID,999.209,VALID,0,VALID,92.2345,VALID,0,VALID,22.5306,VALID,41,VALID,1.37852,
2010-06-29, 02:05:05,VALID,999.187,VALID,0,VALID,92.1963,VALID,0,VALID,22.5111,VALID,40,VALID,1.06367,
2010-06-29, 02:06:05,VALID,999.178,VALID,0,VALID,92.2726,VALID,0,VALID,22.4916,VALID,41,VALID,1.29102,
2010-06-29, 02:07:05,VALID,999.189,VALID,0,VALID,92.3489,VALID,0,VALID,22.4721,VALID,42,VALID,1.18828,
2010-06-29, 02:08:05,VALID,999.168,VALID,0,VALID,92.3718,VALID,0,VALID,22.4721,VALID,41,VALID,1.1918,
2010-06-29, 02:09:05,VALID,999.168,VALID,0,VALID,92.4176,VALID,0,VALID,22.4526,VALID,37,VALID,1.2543,
2010-06-29, 02:10:05,VALID,999.164,VALID,0,VALID,92.4176,VALID,0,VALID,22.4331,VALID,34,VALID,1.03672,
2010-06-29, 02:11:05,VALID,999.152,VALID,0,VALID,92.4863,VALID,0,VALID,22.4136,VALID,32,VALID,0.867578,
2010-06-29, 02:12:05,VALID,999.159,VALID,0,VALID,92.5473,VALID,0,VALID,22.3941,VALID,32,VALID,0.629687,
2010-06-29, 02:13:05,VALID,999.141,VALID,0,VALID,92.616,VALID,0,VALID,22.3958,VALID,32,VALID,0.342187,
2010-06-29, 02:14:05,VALID,999.137,VALID,0,VALID,92.6465,VALID,0,VALID,22.3551,VALID,32,VALID,0,
2010-06-29, 02:15:05,VALID,999.126,VALID,0,VALID,92.6465,VALID,0,VALID,22.3356,VALID,32,VALID,0.109766,
2010-06-29, 02:16:05,VALID,999.138,VALID,0,VALID,92.6846,VALID,0,VALID,22.3161,VALID,32,VALID,0.149609,
2010-06-29, 02:17:05,VALID,999.163,VALID,0,VALID,92.7609,VALID,0,VALID,22.2966,VALID,32,VALID,0.0253906,
2010-06-29, 02:18:05,VALID,999.147,VALID,0,VALID,92.8677,VALID,0,VALID,22.2966,VALID,32,VALID,0,
2010-06-29, 02:19:05,VALID,999.148,VALID,0,VALID,92.9745,VALID,0,VALID,22.2966,VALID,32,VALID,0,
2010-06-29, 02:20:05,VALID,999.156,VALID,0,VALID,93.028,VALID,0,VALID,22.2966,VALID,32,VALID,0,
2010-06-29, 02:21:05,VALID,999.136,VALID,0,VALID,93.089,VALID,0,VALID,22.2983,VALID,32,VALID,0,
2010-06-29, 02:22:05,VALID,999.148,VALID,0,VALID,93.15,VALID,0,VALID,22.2966,VALID,32,VALID,0,
2010-06-29, 02:23:05,VALID,999.151,VALID,0,VALID,93.1882,VALID,0,VALID,22.2771,VALID,32,VALID,0,
2010-06-29, 02:24:05,VALID,999.166,VALID,0,VALID,93.2416,VALID,0,VALID,22.2966,VALID,32,VALID,0,
2010-06-29, 02:25:05,VALID,999.17,VALID,0,VALID,93.3103,VALID,0,VALID,22.3356,VALID,32,VALID,0,
2010-06-29, 02:26:05,VALID,999.174,VALID,0,VALID,93.3637,VALID,0,VALID,22.3746,VALID,32,VALID,0.366016,
2010-06-29, 02:27:05,VALID,999.175,VALID,0,VALID,93.44,VALID,0,VALID,22.3941,VALID,32,VALID,0.2875,
2010-06-29, 02:28:05,VALID,999.165,VALID,0,VALID,93.4857,VALID,0,VALID,22.4136,VALID,32,VALID,0.00195313,
2010-06-29, 02:29:05,VALID,999.209,VALID,0,VALID,93.501,VALID,0,VALID,22.4331,VALID,32,VALID,0,
2010-06-29, 02:30:05,VALID,999.243,VALID,0,VALID,93.5239,VALID,0,VALID,22.4331,VALID,32,VALID,0.119141,
2010-06-29, 02:31:05,VALID,999.228,VALID,0,VALID,93.5315,VALID,0,VALID,22.4331,VALID,32,VALID,0,
2010-06-29, 02:32:05,VALID,999.22,VALID,0,VALID,93.5391,VALID,0,VALID,22.4331,VALID,32,VALID,0,
2010-06-29, 02:33:05,VALID,999.223,VALID,0,VALID,93.562,VALID,0,VALID,22.4526,VALID,32,VALID,0.0148437,
2010-06-29, 02:34:05,VALID,999.212,VALID,0,VALID,93.5544,VALID,0,VALID,22.4526,VALID,32,VALID,0.353516,
2010-06-29, 02:35:05,VALID,999.228,VALID,0,VALID,93.5697,VALID,0,VALID,22.4721,VALID,32,VALID,0.239844,
2010-06-29, 02:36:05,VALID,999.208,VALID,0,VALID,93.5391,VALID,0,VALID,22.4526,VALID,32,VALID,0.0628906,
2010-06-29, 02:37:05,VALID,999.243,VALID,0,VALID,93.5086,VALID,0,VALID,22.4526,VALID,32,VALID,0,
2010-06-29, 02:38:05,VALID,999.233,VALID,0,VALID,93.4934,VALID,0,VALID,22.4526,VALID,32,VALID,0.1625,
2010-06-29, 02:39:05,VALID,999.228,VALID,0,VALID,93.4781,VALID,0,VALID,22.4526,VALID,32,VALID,0.136719,
2010-06-29, 02:40:05,VALID,999.223,VALID,0,VALID,93.4781,VALID,0,VALID,22.4526,VALID,32,VALID,0.196484,
2010-06-29, 02:41:05,VALID,999.224,VALID,0,VALID,93.501,VALID,0,VALID,22.4526,VALID,32,VALID,0.0945313,
2010-06-29, 02:42:05,VALID,999.238,VALID,0,VALID,93.501,VALID,0,VALID,22.4916,VALID,32,VALID,0.195703,
2010-06-29, 02:43:05,VALID,999.236,VALID,0,VALID,93.4705,VALID,0,VALID,22.4526,VALID,32,VALID,0,
2010-06-29, 02:44:05,VALID,999.238,VALID,0,VALID,93.4476,VALID,0,VALID,22.4331,VALID,32,VALID,0.0863281,
2010-06-29, 02:45:05,VALID,999.236,VALID,0,VALID,93.3942,VALID,0,VALID,22.3746,VALID,32,VALID,0.339063,
2010-06-29, 02:46:05,VALID,999.251,VALID,0,VALID,93.4628,VALID,0,VALID,22.4331,VALID,32,VALID,0.374219,
2010-06-29, 02:47:05,VALID,999.24,VALID,0,VALID,93.4857,VALID,0,VALID,22.4526,VALID,32,VALID,0.476172,
2010-06-29, 02:48:05,VALID,999.286,VALID,0,VALID,93.5315,VALID,0,VALID,22.4721,VALID,127,VALID,1.00977,
2010-06-29, 02:49:05,VALID,999.256,VALID,0,VALID,93.4934,VALID,0,VALID,22.4721,VALID,140,VALID,1.1793,
2010-06-29, 02:50:05,VALID,999.251,VALID,0,VALID,93.4476,VALID,0.112286,VALID,22.4899,VALID,145,VALID,1.07891,
2010-06-29, 02:51:05,VALID,999.249,VALID,0,VALID,93.3942,VALID,0,VALID,22.5111,VALID,145,VALID,0.9875,
2010-06-29, 02:52:05,VALID,999.264,VALID,0,VALID,93.2874,VALID,0,VALID,22.5501,VALID,160,VALID,0.942187,
2010-06-29, 02:53:05,VALID,999.26,VALID,0,VALID,93.15,VALID,0,VALID,22.5696,VALID,166,VALID,0.944922,
2010-06-29, 02:54:05,VALID,999.251,VALID,0,VALID,92.9593,VALID,0,VALID,22.5892,VALID,166,VALID,0.849609,
2010-06-29, 02:55:05,VALID,999.252,VALID,0,VALID,92.7609,VALID,0,VALID,22.5892,VALID,166,VALID,0.467969,
2010-06-29, 02:56:05,VALID,999.276,VALID,0,VALID,92.616,VALID,0,VALID,22.5892,VALID,166,VALID,0.359375,
2010-06-29, 02:57:05,VALID,999.293,VALID,0,VALID,92.5473,VALID,0,VALID,22.5696,VALID,166,VALID,0,
2010-06-29, 02:58:05,VALID,999.302,VALID,0,VALID,92.5854,VALID,0,VALID,22.5892,VALID,166,VALID,0,
2010-06-29, 02:59:05,VALID,999.286,VALID,0,VALID,92.6999,VALID,0.112286,VALID,22.5892,VALID,166,VALID,0,
2010-06-29, 03:00:05,VALID,999.292,VALID,0,VALID,92.8525,VALID,0,VALID,22.6087,VALID,166,VALID,0,
2010-06-29, 03:01:05,VALID,999.294,VALID,0,VALID,92.9669,VALID,0,VALID,22.6494,VALID,166,VALID,0,
2010-06-29, 03:02:05,VALID,999.303,VALID,0,VALID,93.0203,VALID,0,VALID,22.6477,VALID,166,VALID,0,
2010-06-29, 03:03:05,VALID,999.323,VALID,0,VALID,93.0661,VALID,0,VALID,22.646,VALID,166,VALID,0,
2010-06-29, 03:04:04,VALID,999.362,VALID,0,VALID,93.0432,VALID,0,VALID,22.6672,VALID,166,VALID,0,
2010-06-29, 03:05:04,VALID,999.367,VALID,0,VALID,93.1119,VALID,0,VALID,22.6477,VALID,163,VALID,0,
2010-06-29, 03:06:04,VALID,999.358,VALID,0,VALID,93.0814,VALID,0,VALID,22.6264,VALID,76,VALID,0,
2010-06-29, 03:07:04,VALID,999.35,VALID,0,VALID,93.1653,VALID,0,VALID,22.6477,VALID,71,VALID,0,
2010-06-29, 03:08:04,VALID,999.355,VALID,0,VALID,93.1653,VALID,0,VALID,22.6672,VALID,71,VALID,0,
2010-06-29, 03:09:04,VALID,999.351,VALID,0,VALID,93.1729,VALID,0,VALID,22.6477,VALID,71,VALID,0,
2010-06-29, 03:10:04,VALID,999.36,VALID,0,VALID,93.0966,VALID,0,VALID,22.6282,VALID,71,VALID,0,
2010-06-29, 03:11:04,VALID,999.353,VALID,0,VALID,92.8906,VALID,0,VALID,22.5501,VALID,71,VALID,0,
2010-06-29, 03:12:04,VALID,999.35,VALID,0,VALID,93.0203,VALID,0,VALID,22.5501,VALID,71,VALID,0.618359,
2010-06-29, 03:13:04,VALID,999.307,VALID,0,VALID,93.0585,VALID,0,VALID,22.5306,VALID,40,VALID,0.8375,
2010-06-29, 03:14:04,VALID,999.301,VALID,0,VALID,92.9974,VALID,0,VALID,22.4916,VALID,20,VALID,0.820703,
2010-06-29, 03:15:04,VALID,999.314,VALID,0,VALID,92.944,VALID,0,VALID,22.4526,VALID,19,VALID,0.769531,
2010-06-29, 03:16:04,VALID,999.338,VALID,0,VALID,92.8601,VALID,0,VALID,22.3746,VALID,19,VALID,0.8,
2010-06-29, 03:17:04,VALID,999.354,VALID,0,VALID,92.7609,VALID,0,VALID,22.3161,VALID,19,VALID,0.976563,
2010-06-29, 03:18:04,VALID,999.367,VALID,0,VALID,93.0203,VALID,0,VALID,22.3161,VALID,22,VALID,0.994922,
2010-06-29, 03:19:04,VALID,999.335,VALID,0,VALID,93.1805,VALID,0,VALID,22.3161,VALID,33,VALID,1.1957,
2010-06-29, 03:20:04,VALID,999.353,VALID,0,VALID,93.1729,VALID,0,VALID,22.3356,VALID,33,VALID,1.12188,
2010-06-29, 03:21:04,VALID,999.329,VALID,0,VALID,93.15,VALID,0,VALID,22.3161,VALID,27,VALID,1.15195,
2010-06-29, 03:22:04,VALID,999.3,VALID,0,VALID,92.9974,VALID,0.112286,VALID,22.2771,VALID,5,VALID,1.10859,
2010-06-29, 03:23:04,VALID,999.313,VALID,0,VALID,93.2416,VALID,0,VALID,22.2966,VALID,5,VALID,0.843359,
2010-06-29, 03:24:04,VALID,999.318,VALID,0,VALID,93.2111,VALID,0,VALID,22.2771,VALID,5,VALID,0.541797,
2010-06-29, 03:25:04,VALID,999.308,VALID,0,VALID,93.2645,VALID,0,VALID,22.2771,VALID,45,VALID,0.910937,
2010-06-29, 03:26:04,VALID,999.316,VALID,0,VALID,93.2721,VALID,0,VALID,22.2381,VALID,66,VALID,1.45313,
2010-06-29, 03:27:04,VALID,999.249,VALID,0,VALID,93.3255,VALID,0,VALID,22.2381,VALID,69,VALID,0.987891,
2010-06-29, 03:28:04,VALID,999.306,VALID,0,VALID,93.356,VALID,0,VALID,22.1974,VALID,47,VALID,1.03398,
2010-06-29, 03:29:04,VALID,999.305,VALID,0,VALID,93.3866,VALID,0,VALID,22.2186,VALID,33,VALID,0.932422,
2010-06-29, 03:30:04,VALID,999.303,VALID,0,VALID,93.4171,VALID,0,VALID,22.199,VALID,32,VALID,0.701172,
2010-06-29, 03:31:04,VALID,999.303,VALID,0,VALID,93.3789,VALID,0,VALID,22.16,VALID,32,VALID,0.592188,
2010-06-29, 03:32:04,VALID,999.327,VALID,0,VALID,93.4094,VALID,0,VALID,22.16,VALID,34,VALID,0.941406,
2010-06-29, 03:33:04,VALID,999.322,VALID,0,VALID,93.5086,VALID,0,VALID,22.199,VALID,48,VALID,1.2543,
2010-06-29, 03:34:04,VALID,999.335,VALID,0,VALID,93.5544,VALID,0,VALID,22.199,VALID,53,VALID,1.38828,
2010-06-29, 03:35:04,VALID,999.339,VALID,0,VALID,93.5773,VALID,0,VALID,22.2186,VALID,68,VALID,1.34336,
2010-06-29, 03:36:04,VALID,999.376,VALID,0,VALID,93.6002,VALID,0,VALID,22.2381,VALID,83,VALID,1.57344,
2010-06-29, 03:37:04,VALID,999.382,VALID,0,VALID,93.5773,VALID,0,VALID,22.2381,VALID,85,VALID,1.29883,
2010-06-29, 03:38:04,VALID,999.403,VALID,0,VALID,93.5773,VALID,0,VALID,22.2381,VALID,81,VALID,0.913281,
2010-06-29, 03:39:04,VALID,999.4,VALID,0,VALID,93.5926,VALID,0,VALID,22.2186,VALID,81,VALID,0.477734,
2010-06-29, 03:40:04,VALID,999.376,VALID,0,VALID,93.5697,VALID,0,VALID,22.199,VALID,81,VALID,0.103125,
2010-06-29, 03:41:04,VALID,999.36,VALID,0,VALID,93.5468,VALID,0,VALID,22.2186,VALID,81,VALID,0.135156,
2010-06-29, 03:42:04,VALID,999.358,VALID,0,VALID,93.5468,VALID,0,VALID,22.199,VALID,91,VALID,0.295703,
2010-06-29, 03:43:04,VALID,999.371,VALID,0,VALID,93.5697,VALID,0,VALID,22.2186,VALID,101,VALID,0.737891,
2010-06-29, 03:44:04,VALID,999.37,VALID,0,VALID,93.6231,VALID,0,VALID,22.2381,VALID,101,VALID,0.539453,
2010-06-29, 03:45:04,VALID,999.37,VALID,0,VALID,93.6078,VALID,0,VALID,22.2381,VALID,101,VALID,0.535937,
2010-06-29, 03:46:04,VALID,999.38,VALID,0,VALID,93.6231,VALID,0,VALID,22.2576,VALID,116,VALID,0.585547,
2010-06-29, 03:47:04,VALID,999.418,VALID,0,VALID,93.6841,VALID,0,VALID,22.3161,VALID,116,VALID,0.544531,
2010-06-29, 03:48:04,VALID,999.376,VALID,0,VALID,93.707,VALID,0,VALID,22.3746,VALID,178,VALID,0.887891,
2010-06-29, 03:49:04,VALID,999.376,VALID,0,VALID,93.7451,VALID,0,VALID,22.4136,VALID,178,VALID,1.0957,
2010-06-29, 03:50:04,VALID,999.371,VALID,0,VALID,93.7528,VALID,0,VALID,22.4916,VALID,178,VALID,1.06484,